| time (UTC) | temp F | wind direction | speed knots | gust knots | rain 1hr in | rain 24hr in | rain mn in | humidity % | barometer mb |
| 20260507043804 | 51 | 164 | 1.7 | 2.6 | 0.00 | 0.06 | 0.00 | 91 | 1012.9 |
| 20260507043306 | 51 | 162 | 1.7 | 2.6 | 0.00 | 0.07 | 0.00 | 91 | 1013.0 |
| 20260507042803 | 51 | 162 | 2.6 | 2.6 | 0.00 | 0.07 | 0.00 | 91 | 1012.9 |
| 20260507042306 | 52 | 165 | 2.6 | 4.3 | 0.00 | 0.07 | 0.00 | 91 | 1013.0 |
| 20260507041304 | 52 | 198 | 1.7 | 2.6 | 0.00 | 0.07 | 0.00 | 91 | 1013.0 |
| 20260507032305 | 52 | 160 | 2.6 | 4.3 | 0.00 | 0.07 | 0.00 | 91 | 1013.3 |
| 20260507030307 | 53 | 158 | 1.7 | 2.6 | 0.00 | 0.09 | 0.00 | 91 | 1013.4 |
| 20260507024806 | 53 | 158 | 1.7 | 2.6 | 0.00 | 0.15 | 0.00 | 91 | 1013.4 |
| 20260507023305 | 53 | 164 | 0.9 | 2.6 | 0.00 | 0.15 | 0.00 | 90 | 1013.5 |
| 20260507021806 | 53 | 164 | 1.7 | 2.6 | 0.00 | 0.15 | 0.00 | 90 | 1013.6 |
| 20260507020306 | 54 | 164 | 0.9 | 2.6 | 0.00 | 0.15 | 0.00 | 90 | 1013.9 |
| 20260507015804 | 54 | 161 | 2.6 | 2.6 | 0.00 | 0.15 | 0.00 | 90 | 1013.9 |
| 20260507015306 | 54 | 161 | 1.7 | 2.6 | 0.00 | 0.16 | 0.00 | 90 | 1013.9 |
| 20260507014304 | 54 | 189 | 0.9 | 1.7 | 0.00 | 0.16 | 0.00 | 89 | 1013.7 |
| 20260507004806 | 54 | 112 | 0.9 | 2.6 | 0.00 | 0.17 | 0.00 | 88 | 1014.1 |
| 20260507003803 | 55 | 150 | 0.9 | 2.6 | 0.00 | 0.17 | 0.00 | 88 | 1014.2 |
| 20260507002306 | 55 | 143 | 1.7 | 4.3 | 0.00 | 0.17 | 0.00 | 87 | 1014.3 |
| 20260506235306 | 55 | 148 | 0.9 | 2.6 | 0.00 | 0.17 | 0.00 | 86 | 1014.5 |
| 20260506234806 | 55 | 148 | 1.7 | 4.3 | 0.00 | 0.17 | 0.00 | 86 | 1014.5 |
| 20260506233804 | 56 | 123 | 1.7 | 4.3 | 0.00 | 0.18 | 0.00 | 86 | 1014.5 |
| 20260506233306 | 56 | 123 | 0.0 | 1.7 | 0.00 | 0.18 | 0.00 | 86 | 1014.5 |
| 20260506231806 | 56 | 123 | 1.7 | 2.6 | 0.00 | 0.18 | 0.00 | 85 | 1014.5 |
| 20260506231303 | 56 | 123 | 1.7 | 4.3 | 0.00 | 0.18 | 0.00 | 85 | 1014.5 |
| 20260506225305 | 56 | 85 | 0.9 | 2.6 | 0.00 | 0.18 | 0.00 | 84 | 1014.5 |
| 20260506224806 | 56 | 85 | 0.9 | 1.7 | 0.00 | 0.18 | 0.00 | 84 | 1014.6 |
| 20260506224304 | 57 | 85 | 0.9 | 2.6 | 0.00 | 0.18 | 0.00 | 84 | 1014.6 |
| 20260506223804 | 57 | 85 | 0.9 | 2.6 | 0.00 | 0.18 | 0.00 | 84 | 1014.5 |
| 20260506223306 | 57 | 85 | 0.0 | 0.9 | 0.00 | 0.18 | 0.00 | 84 | 1014.6 |
| 20260506222803 | 57 | 85 | 1.7 | 2.6 | 0.00 | 0.18 | 0.00 | 84 | 1014.5 |
| 20260506222305 | 57 | 80 | 1.7 | 2.6 | 0.00 | 0.18 | 0.00 | 84 | 1014.6 |
| 20260506221806 | 57 | 73 | 0.9 | 2.6 | 0.00 | 0.18 | 0.00 | 84 | 1014.6 |
| 20260506215306 | 58 | 92 | 0.9 | 2.6 | 0.00 | 0.20 | 0.19 | 85 | 1014.8 |
| 20260506214806 | 58 | 92 | 1.7 | 2.6 | 0.00 | 0.20 | 0.19 | 85 | 1014.8 |
| 20260506214304 | 58 | 92 | 0.0 | 1.7 | 0.00 | 0.20 | 0.19 | 85 | 1014.8 |
| 20260506212804 | 58 | 92 | 0.0 | 0.0 | 0.00 | 0.20 | 0.19 | 85 | 1014.9 |
| 20260506211806 | 58 | 92 | 0.0 | 1.7 | 0.00 | 0.20 | 0.19 | 84 | 1014.9 |
| 20260506210803 | 58 | 92 | 0.0 | 1.7 | 0.00 | 0.20 | 0.19 | 84 | 1014.9 |
| 20260506205803 | 58 | 92 | 1.7 | 2.6 | 0.00 | 0.20 | 0.19 | 84 | 1014.9 |
| 20260506205306 | 58 | 92 | 1.7 | 2.6 | 0.00 | 0.20 | 0.19 | 84 | 1015.0 |
| 20260506204303 | 59 | 92 | 1.7 | 2.6 | 0.00 | 0.21 | 0.19 | 83 | 1015.0 |
| 20260506203803 | 59 | 92 | 1.7 | 2.6 | 0.00 | 0.21 | 0.19 | 83 | 1014.9 |
| 20260506203306 | 59 | 92 | 1.7 | 2.6 | 0.00 | 0.21 | 0.19 | 83 | 1014.9 |
| 20260506202803 | 59 | 92 | 0.0 | 1.7 | 0.00 | 0.21 | 0.19 | 82 | 1014.8 |
| 20260506200804 | 59 | 92 | 0.0 | 1.7 | 0.00 | 0.21 | 0.19 | 80 | 1014.5 |
| 20260506194304 | 59 | 92 | 0.0 | 0.0 | 0.00 | 0.21 | 0.19 | 80 | 1014.3 |
| 20260506193306 | 59 | 92 | 0.0 | 0.0 | 0.00 | 0.21 | 0.19 | 80 | 1014.3 |
| 20260506192803 | 59 | 92 | 0.0 | 1.7 | 0.00 | 0.21 | 0.19 | 80 | 1014.3 |
| 20260506191303 | 59 | 92 | 0.0 | 1.7 | 0.00 | 0.21 | 0.19 | 80 | 1014.3 |
| 20260506190306 | 59 | 92 | 0.9 | 2.6 | 0.00 | 0.21 | 0.19 | 81 | 1014.3 |
| 20260506185803 | 59 | 92 | 0.9 | 2.6 | 0.00 | 0.21 | 0.19 | 81 | 1014.3 |
| 20260506185306 | 59 | 58 | 0.0 | 0.0 | 0.00 | 0.21 | 0.19 | 81 | 1014.3 |
| 20260506184806 | 59 | 58 | 0.0 | 0.0 | 0.00 | 0.21 | 0.19 | 81 | 1014.3 |
| 20260506183803 | 59 | 58 | 0.0 | 0.0 | 0.00 | 0.21 | 0.19 | 81 | 1014.3 |
| 20260506183306 | 59 | 58 | 0.0 | 0.0 | 0.00 | 0.21 | 0.19 | 81 | 1014.3 |
| 20260506182803 | 59 | 58 | 0.0 | 1.7 | 0.00 | 0.21 | 0.19 | 81 | 1014.2 |
| 20260506181806 | 59 | 58 | 2.6 | 2.6 | 0.00 | 0.21 | 0.19 | 81 | 1014.2 |
| 20260506180804 | 59 | 56 | 1.7 | 2.6 | 0.00 | 0.21 | 0.19 | 81 | 1014.2 |
| 20260506174806 | 59 | 58 | 1.7 | 2.6 | 0.00 | 0.21 | 0.19 | 81 | 1014.3 |
| 20260506173804 | 59 | 62 | 1.7 | 4.3 | 0.00 | 0.21 | 0.19 | 82 | 1014.3 |
| 20260506172306 | 60 | 58 | 3.5 | 5.2 | 0.00 | 0.21 | 0.19 | 81 | 1014.3 |
| 20260506171805 | 60 | 25 | 2.6 | 4.3 | 0.00 | 0.21 | 0.19 | 81 | 1014.3 |
| 20260506164805 | 60 | 25 | 3.5 | 5.2 | 0.00 | 0.21 | 0.19 | 83 | 1014.4 |
| 20260506164304 | 60 | 21 | 5.2 | 6.1 | 0.00 | 0.21 | 0.19 | 82 | 1014.4 |
| 20260506162804 | 59 | 4 | 4.3 | 7.0 | 0.00 | 0.21 | 0.19 | 83 | 1014.4 |
| 20260506160803 | 60 | 356 | 5.2 | 8.7 | 0.00 | 0.21 | 0.19 | 83 | 1014.7 |
| 20260506160305 | 60 | 354 | 6.1 | 7.8 | 0.00 | 0.21 | 0.19 | 83 | 1014.6 |
| 20260506153803 | 60 | 349 | 5.2 | 7.0 | 0.00 | 0.21 | 0.19 | 82 | 1014.8 |
| 20260506153306 | 60 | 6 | 5.2 | 7.0 | 0.00 | 0.21 | 0.19 | 82 | 1014.8 |
| 20260506152305 | 60 | 352 | 7.8 | 10.4 | 0.00 | 0.21 | 0.19 | 81 | 1014.9 |
| 20260506151806 | 60 | 347 | 6.1 | 8.7 | 0.00 | 0.21 | 0.19 | 81 | 1014.9 |
| 20260506151303 | 60 | 2 | 6.1 | 8.7 | 0.00 | 0.21 | 0.19 | 82 | 1014.9 |
| 20260506150805 | 60 | 1 | 6.1 | 7.8 | 0.00 | 0.21 | 0.19 | 81 | 1014.8 |
| 20260506145803 | 60 | 4 | 6.1 | 7.8 | 0.00 | 0.21 | 0.19 | 82 | 1014.9 |
| 20260506144806 | 60 | 358 | 6.1 | 7.8 | 0.00 | 0.21 | 0.19 | 82 | 1015.0 |
| 20260506143306 | 60 | 0 | 7.8 | 10.4 | 0.00 | 0.21 | 0.19 | 81 | 1015.0 |
| 20260506142803 | 60 | 342 | 7.8 | 12.2 | 0.00 | 0.21 | 0.19 | 80 | 1015.0 |
| 20260506134807 | 60 | 314 | 6.1 | 10.4 | 0.00 | 0.37 | 0.19 | 81 | 1015.3 |
| 20260506134303 | 60 | 317 | 7.8 | 10.4 | 0.00 | 0.53 | 0.19 | 80 | 1015.3 |
| 20260506133307 | 59 | 6 | 5.2 | 10.4 | 0.00 | 0.53 | 0.19 | 81 | 1015.4 |
| 20260506132306 | 59 | 322 | 5.2 | 8.7 | 0.00 | 0.53 | 0.19 | 82 | 1015.4 |
| 20260506131304 | 59 | 341 | 7.8 | 11.3 | 0.00 | 0.53 | 0.19 | 82 | 1015.3 |
| 20260506130306 | 58 | 318 | 8.7 | 12.2 | 0.00 | 0.53 | 0.19 | 82 | 1015.4 |
| 20260506124303 | 59 | 345 | 7.0 | 11.3 | 0.00 | 0.53 | 0.19 | 81 | 1015.5 |
| 20260506123306 | 59 | 335 | 6.1 | 10.4 | 0.00 | 0.53 | 0.19 | 79 | 1015.5 |
| 20260506122804 | 59 | 320 | 6.1 | 12.2 | 0.00 | 0.53 | 0.19 | 79 | 1015.5 |
| 20260506122306 | 59 | 300 | 7.0 | 10.4 | 0.00 | 0.53 | 0.19 | 79 | 1015.5 |
| 20260506120803 | 59 | 314 | 7.0 | 12.2 | 0.00 | 0.53 | 0.19 | 78 | 1015.3 |
| 20260506114806 | 59 | 275 | 6.1 | 10.4 | 0.00 | 0.53 | 0.19 | 80 | 1015.3 |
| 20260506112803 | 59 | 313 | 7.8 | 13.0 | 0.00 | 0.53 | 0.19 | 82 | 1015.4 |
| 20260506111806 | 59 | 304 | 7.0 | 13.0 | 0.00 | 0.53 | 0.19 | 82 | 1015.5 |
| 20260506110306 | 59 | 314 | 7.0 | 13.0 | 0.00 | 0.53 | 0.19 | 81 | 1015.3 |
| 20260506105305 | 59 | 284 | 8.7 | 13.0 | 0.00 | 0.53 | 0.19 | 81 | 1015.4 |
| 20260506103803 | 58 | 264 | 6.1 | 12.2 | 0.00 | 0.53 | 0.19 | 84 | 1015.2 |
| 20260506103306 | 58 | 294 | 4.3 | 11.3 | 0.00 | 0.53 | 0.19 | 84 | 1015.2 |
| 20260506100306 | 57 | 248 | 2.6 | 7.0 | 0.01 | 0.53 | 0.19 | 87 | 1015.2 |
| 20260506095803 | 57 | 269 | 7.0 | 11.3 | 0.01 | 0.53 | 0.19 | 87 | 1015.2 |
| 20260506092804 | 56 | 252 | 7.0 | 13.0 | 0.02 | 0.53 | 0.19 | 87 | 1015.1 |
| 20260506090804 | 56 | 258 | 7.8 | 12.2 | 0.04 | 0.52 | 0.18 | 87 | 1015.1 |
| 20260506084807 | 56 | 279 | 7.0 | 11.3 | 0.06 | 0.52 | 0.18 | 86 | 1014.9 |
| 20260506083804 | 56 | 272 | 4.3 | 7.0 | 0.05 | 0.51 | 0.17 | 86 | 1014.9 |
| 20260506083306 | 56 | 259 | 2.6 | 5.2 | 0.05 | 0.51 | 0.17 | 85 | 1015.0 |
| 20260506071806 | 57 | 259 | 7.8 | 13.9 | 0.00 | 0.46 | 0.13 | 82 | 1014.6 |
| 20260506071303 | 57 | 251 | 5.2 | 11.3 | 0.00 | 0.46 | 0.13 | 82 | 1014.5 |
| 20260506062305 | 55 | 228 | 6.1 | 10.4 | 0.00 | 0.46 | 0.13 | 84 | 1014.2 |
| 20260506061806 | 55 | 235 | 6.1 | 10.4 | 0.00 | 0.46 | 0.13 | 84 | 1014.1 |
| 20260506061304 | 55 | 230 | 6.1 | 10.4 | 0.00 | 0.46 | 0.13 | 84 | 1014.1 |
| 20260506050306 | 54 | 212 | 7.8 | 12.2 | 0.01 | 0.46 | 0.13 | 86 | 1013.9 |